Location: Ierma
(15.1201°N, 12.7445°W)
Time: 15:11:57
(UTC+00:00)

Daily predictions for brighter satellites

Satellite Brightness Start Highest point End
(mag) Time Altitude Azimuth Time Altitude Azimuth Time Altitude Azimuth
Meteor 2-15 Rocket 4.5 18:58:44 10° S 19:04:51 77° E 19:10:58 10° N
GPS 2-17 Rocket1 3.8 19:03:09 10° WNW 19:07:26 42° N 19:11:36 10° ENE
H-2A R/B 3.9 19:03:58 10° S 19:07:30 47° W 19:11:05 10° NNW
Envisat 3.0 19:05:28 10° SSE 19:10:27 62° ENE 19:15:27 10° N
Cosmos 1371 Rocket 4.1 19:05:58 10° SSW 19:11:13 87° WNW 19:16:33 10° NNE
Cosmos 2219 Rocket 3.1 19:06:44 10° NNE 19:11:25 27° ENE 19:16:05 10° SE
GPS 2-14 Rocket1 3.3 19:08:35 10° WNW 19:12:19 42° N 19:15:59 10° E
YAOGAN 1 3.2 19:09:19 10° SE 19:13:12 33° ENE 19:17:04 10° NNE
Cosmos 2082 4.0 19:08:41 10° S 19:14:04 44° ESE 19:19:28 10° NNE
ARIANE 5 R/B 4.0 19:06:51 10° WSW 19:14:31 18° SSW 19:17:40 10° SSE
YAOGAN 6 3.1 19:11:29 10° SSE 19:14:53 39° ENE 19:18:19 10° N
GPS 2-05 Rocket1 3.1 19:12:47 10° NW 19:15:18 33° NNE 19:17:34 12° E
TIMED 4.5 19:14:01 10° N 19:18:21 66° ENE 19:22:38 10° SSE
Cosmos 1536 Rocket 3.5 19:17:02 10° N 19:21:22 82° E 19:25:43 10° S
Cosmos 2333 4.3 19:16:00 10° N 19:21:37 59° ENE 19:27:15 10° SSE
Cosmos 1452 Rocket 4.4 19:17:37 10° SSE 19:21:54 26° E 19:26:09 10° NE
Cosmos 2360 Rocket 3.4 19:21:17 10° NNW 19:26:41 47° WSW 19:32:05 10° S
SL-4 R/B 1.9 19:22:35 10° SW 19:26:44 88° SE 19:30:33 10° NE
Cosmos 2227 Rocket 2.5 19:22:18 10° SSW 19:27:55 73° WNW 19:33:33 10° N
CZ-2D R/B 4.3 19:26:41 10° SE 19:29:46 24° ENE 19:32:51 10° NNE
Cosmos 2154 Rocket 4.3 19:24:52 10° NNE 19:30:43 43° E 19:36:36 10° SSE
GP-B 3.0 19:28:07 10° N 19:32:32 70° E 19:36:56 10° S
Cosmos 2322 3.8 19:27:23 10° NNW 19:33:06 80° WSW 19:38:46 10° SSE
IUS-13 SRM-1 4.0 19:31:06 10° NNW 19:33:50 29° NNE 19:38:46 16° E
COSMOS 2428 2.8 19:30:38 10° N 19:36:07 51° ENE 19:41:38 10° SSE
Cosmos 2297 Rocket 3.1 19:32:26 10° SSW 19:37:55 52° WNW 19:43:24 10° N
CZ-4 R/B 1.9 19:37:58 10° S 19:41:45 59° W 19:45:35 10° NNW
CZ-3 Stage 3 2.0 19:37:40 10° WSW 19:44:14 73° SSE 19:45:16 33° ENE
Cosmos 2184 Rocket 4.3 19:38:49 10° N 19:45:05 72° W 19:51:24 10° S
CZ-2C R/B 3.8 19:43:32 10° NNE 19:47:49 49° ESE 19:52:07 10° S
Cosmos 405 Rocket 2.8 19:46:55 10° S 19:50:35 73° W 19:54:14 10° N
Ariane Rocket 3.2 19:48:02 10° SSE 19:52:50 45° ENE 19:57:37 10° N
Cosmos 1455 Rocket 3.0 19:51:21 10° S 19:55:42 65° E 20:00:04 10° NNE
Cosmos 1544 Rocket 3.7 19:51:26 10° SSE 19:55:44 48° E 20:00:01 10° NNE
CSL-04 Rocket 4.2 19:55:02 10° S 20:00:24 61° WSW 20:05:50 10° NNW
ADEOS Rocket 3.9 19:53:31 10° NNE 20:00:43 41° E 20:07:47 10° SSE
NOSS 3-4 (A) 4.4 19:56:05 10° N 20:03:07 41° ENE 20:06:08 30° ESE
NOSS 3-4 (C) 4.4 19:56:13 10° N 20:03:12 40° ENE 20:06:07 30° ESE
Cosmos 1939 Rocket 2.6 20:04:11 26° SSE 20:06:15 76° ENE 20:10:04 10° N
Cosmos 1295 Rocket 4.3 20:02:02 10° N 20:08:05 70° E 20:14:08 10° S
ATLAS CENTAUR R/B 1.6 20:03:42 10° SSW 20:08:27 79° ESE 20:11:59 19° NNE
CZ-3 Stage 3 2.5 20:03:40 10° W 20:08:43 28° NW 20:09:45 22° N
Cosmos 1818 3.9 20:04:32 10° S 20:09:13 40° ESE 20:09:13 40° ESE
In-Cosmos 22 4.4 20:04:29 10° NNE 20:09:44 44° E 20:10:26 42° ESE
CZ-3B R/B 4.0 19:50:19 10° SW 20:09:55 45° SSE 20:15:34 30° ESE
Cosmos 962 Rocket 4.5 20:04:37 10° N 20:10:54 64° E 20:17:11 10° SSE
Cosmos 1420 Rocket 4.4 20:06:12 10° SSW 20:11:24 64° WNW 20:16:39 10° N
BREEZE-M DEB (TANK) 4.0 20:09:08 10° NNW 20:13:17 54° ENE 20:20:10 26° SE
Aureole 1 Rocket 4.5 20:11:12 10° NW 20:14:06 26° W 20:16:43 10° SSW
ASTEX 1 3.6 20:12:12 10° N 20:17:03 68° W 20:21:56 10° SSW
Cosmos 407 Rocket 3.8 20:15:57 10° N 20:19:59 45° NE 20:19:59 45° NE
Cosmos 2237 Rocket 2.6 20:20:51 10° N 20:25:25 46° NE 20:25:25 46° NE
GPS 2-15 Rocket1 3.2 20:23:46 10° W 20:28:17 65° NNW 20:28:17 65° NNW
Cosmos 2333 Rocket 3.3 20:24:04 10° NW 20:29:25 42° WSW 20:34:48 10° S
Cosmos 1980 3.8 20:31:08 10° N 20:35:57 62° NNE 20:35:57 62° NNE
Atlas Centaur 2 3.8 20:36:49 10° SW 20:37:05 12° SW 20:37:05 12° SW
Gbstr 26 Del rocket 3.8 20:36:40 10° SW 20:42:07 82° NW 20:42:48 71° NNE
Meteor 2-17 Rocket 4.2 20:36:24 10° N 20:42:27 88° E 20:42:49 80° SSE
Lacrosse 5 4.3 20:38:48 10° WSW 20:42:32 20° NW 20:46:15 10° N
ATLAS 2AS CENTAUR R/B 3.0 20:39:08 10° NW 20:46:01 59° WSW 20:48:47 34° S
Cosmos 2219 Rocket 4.4 20:50:50 10° NW 20:55:04 22° WSW 20:59:20 10° SSW
Palapa 6 Rocket 4.2 20:48:37 10° WSW 20:54:56 63° SW 20:54:56 63° SW
CZ-3B R/B 4.5 22:16:08 10° WSW 22:24:53 35° WSW 22:24:53 35° WSW
